Flag for Czech Republic Weather past 2 weeks in Plzen, Czech Republic

Now
64 °F

Fog.


Feels Like: 64 °F
Forecast: 62 / 76 °F
Wind: No wind

Location: Kocelovice

Current Time: Jul 30, 2014 at 9:01:08 AM

Latest Report: Jul 30, 2014 at 8:00 AM


Visibility: 1 mi

Pressure: 29.72 "Hg

Humidity: 98%

Dew point: 63 °F

Location of PlzenLocation

Historic Weather in Plzen — Graph

°F

Plzen temperature yesterday

Maximum temperature yesterday: 76 °F (at 3:00 PM)
Minimum temperature yesterday: 60 °F (at 6:00 AM)
Average temperature yesterday: 67 °F

Past Weeks' High & Low Weather Summary

 TemperatureHumidityPressure
High88 °F (Jul 20, 5:00 PM)100% (Jul 25, 6:00 AM)30.17 "Hg (Jul 25, 6:00 AM)
Low52 °F (Jul 25, 5:00 AM)29% (Jul 19, 6:00 PM)29.67 "Hg (Jul 29, 5:00 PM)
Average69 °F70%29.93 "Hg
* Reported Jul 15 7:00 AM — Jul 30 7:00 AM, Plzen, Weather by CustomWeather, © 2014

Note: Actual official high and low records may vary slightly from our data, if they occured in-between our weather recording intervals... More about our weather records

Advertising

Plzen weather history for previous 24 hours

 ConditionsComfort  
Time TempWeatherWind HumidityBarometerVisibility
7:00 AM
Jul 30
63 °FFog.No wind99%29.71 "Hg2 mi
6:00 AM61 °FCool.1 mph100%29.71 "Hg1 mi
5:00 AM61 °FDuststorm.2 mph99%29.71 "Hg1 mi
4:00 AM61 °FDuststorm.3 mph99%29.71 "Hg1 mi
3:00 AM63 °FFog.1 mph97%29.71 "Hg4 mi
2:00 AM63 °FFog.2 mph98%29.70 "Hg3 mi
1:00 AM64 °FMild.2 mph94%29.71 "Hg7 mi
12:00 AM64 °FMild.3 mph94%29.72 "Hg7 mi
11:00 PM
Jul 29
65 °FMild.No wind95%29.71 "Hg8 mi
10:00 PM66 °FPassing clouds.3 mph89%29.71 "Hg16 mi
9:00 PM68 °FPassing clouds.3 mph83%29.70 "Hg19 mi
8:00 PM69 °FPartly sunny.3 mph82%29.69 "Hg22 mi
7:00 PM70 °FPartly sunny.5 mph77%29.67 "Hg16 mi
6:00 PM71 °FSprinkles. Overcast.5 mph70%29.68 "Hg16 mi
5:00 PM75 °FPartly sunny.5 mph60%29.67 "Hg17 mi
4:00 PM74 °FPartly sunny.5 mph61%29.69 "Hg16 mi
3:00 PM76 °FPartly sunny.5 mph61%29.70 "Hg16 mi
2:00 PM74 °FOvercast.5 mph64%29.72 "Hg12 mi
1:00 PM73 °FOvercast.5 mph65%29.75 "Hg11 mi
12:00 PM72 °FOvercast.6 mph68%29.75 "Hg14 mi
11:00 AM70 °FOvercast.5 mph72%29.76 "Hg11 mi
10:00 AM67 °FFog.5 mph82%29.77 "Hg6 mi
9:00 AM64 °FFog.2 mph96%29.79 "Hg4 mi
Weather by CustomWeather, © 2014

See weather overviewHow to use our weather pages